RH
17 22 25 32 43 40 52 62 65 69 72 74 74 67 67 71 79 80 80 77 76 74 66 64 69 69 72 71 73 74 75 80 80 81 77 73 68 59 58 62 60 59 53 58
15 17 22 28 41 39 37 39 53 66 69 69 74 74 71 67 70 74 75 79 79 80 72 71 63 71 68 69 69 71 72 76 73 77 77 75 69 64 56 56 53 64 55 55
13 12 17 25 40 38 36 39 44 52 69 70 69 71 75 72 71 72 75 74 78 79 77 72 68 63 64 64 66 68 67 69 69 73 76 75 69 66 55 53 55 65 55 65
14 13 12 22 34 35 31 25 40 54 64 63 63 70 65 74 72 69 72 73 74 79 81 78 65 65 63 65 68 68 69 63 64 69 74 82 73 66 56 52 54 62 59 56
18 16 14 13 22 29 27 32 46 56 57 56 63 68 59 68 72 70 72 74 76 77 81 78 75 64 58 66 68 69 67 66 64 65 69 75 70 59 56 53 55 56 60 58
20 18 17 17 25 27 34 41 48 52 61 69 57 61 54 66 66 68 67 74 79 79 78 81 81 70 66 69 70 70 66 63 62 58 62 64 60 58 56 57 56 58 60 58
19 20 20 23 29 35 41 55 56 54 64 66 57 57 51 53 58 61 62 70 75 77 78 78 81 76 69 67 67 64 71 63 61 58 55 55 57 59 60 62 58 61 63 61
29 28 27 26 29 35 45 53 50 49 57 51 47 52 45 47 54 59 62 65 70 74 76 77 76 82 78 79 66 58 70 66 60 59 55 56 56 55 54 55 53 54 58 59
32 32 31 29 28 27 29 32 38 46 47 44 45 47 48 48 51 53 57 60 67 72 74 77 77 81 85 82 68 53 62 67 61 57 54 53 54 52 51 51 53 56 55 53
33 35 34 34 29 27 26 30 33 42 46 43 52 54 51 54 54 55 53 53 58 70 72 75 74 82 85 82 68 64 55 69 65 59 54 52 50 49 49 51 52 54 53 47
33 34 37 35 34 32 33 38 46 45 49 52 52 50 45 49 47 50 49 50 53 57 61 64 71 74 82 79 71 64 54 69 66 62 56 55 54 51 51 53 53 53 50 48
34 38 41 40 43 39 35 41 42 40 46 57 55 49 48 47 45 43 45 48 55 58 58 58 63 74 66 73 75 64 58 58 65 61 56 53 55 54 52 53 54 61 55 55
38 45 50 47 39 39 39 41 50 54 56 61 57 50 52 53 50 48 48 47 50 55 57 60 66 73 75 75 74 71 68 63 58 67 62 58 49 50 50 50 55 63 64 61
38 43 45 48 44 43 44 44 45 46 53 57 54 44 47 54 54 53 53 54 55 57 67 70 74 77 75 80 74 78 78 75 65 66 60 58 54 48 45 51 54 54 58 56
40 40 40 41 41 39 41 42 44 43 44 46 43 48 47 49 52 53 53 58 61 60 68 87 86 86 81 79 77 72 72 81 71 87 78 70 62 56 54 49 50 55 53 53
40 40 38 41 40 42 42 41 44 45 47 48 47 48 44 50 49 53 56 62 67 68 70 85 84 87 87 82 83 80 75 88 82 76 79 81 80 63 58 56 52 49 53 57
40 41 40 43 41 42 43 43 44 46 46 46 50 44 45 49 54 55 59 67 71 72 79 68 77 79 82 85 77 81 79 75 79 72 75 87 90 81 82 70 59 47 48 51
40 41 42 45 42 45 39 41 44 46 46 46 44 46 45 47 54 61 62 64 73 72 77 84 72 75 75 72 66 78 83 79 70 76 81 86 97 97 98 90 83 67 55 54
39 43 46 46 46 43 43 46 46 45 46 45 47 50 50 56 64 62 62 66 68 69 74 77 78 74 73 68 64 68 65 65 69 79 86 90 91 91 92 95 94 90 75 62
40 40 42 47 43 45 37 36 38 43 45 43 47 52 57 63 63 61 65 68 69 70 72 73 74 73 75 74 72 70 68 67 63 69 77 86 96 98 96 98 92 91 93 81
45 44 42 45 42 38 35 39 42 50 44 44 48 52 57 58 53 57 60 59 56 56 58 59 65 71 70 67 60 60 60 61 60 60 68 75 82 88 85 85 89 88 91 91
45 47 47 49 50 40 41 48 48 43 39 43 45 46 49 52 53 52 51 51 52 54 53 54 47 45 51 56 55 54 52 54 57 60 62 66 72 72 77 85 87 93 94 89
45 43 46 46 45 41 47 47 45 43 42 43 42 45 50 56 58 57 52 48 44 41 42 41 35 28 29 34 37 43 48 54 55 61 64 66 67 69 75 73 76 79 77 85
52 49 50 49 48 46 47 47 44 43 43 45 49 52 57 56 56 56 56 53 49 41 38 33 30 24 28 33 33 35 39 43 50 60 64 66 68 66 71 71 71 72 71 71
55 54 54 53 48 49 50 52 49 49 51 49 51 49 49 48 50 50 51 52 53 49 41 34 30 25 30 31 31 36 37 39 46 53 59 61 62 64 68 71 73 72 72 70
59 57 55 55 49 48 48 47 49 52 51 51 48 43 44 43 37 36 36 39 42 42 38 31 26 26 31 34 34 36 40 45 48 51 52 56 61 65 70 76 76 74 70 73